Weather History for Ostend, Belgium

Change the Weather History Date:

Wednesday, February 6, 2013

  Actual Average Record
Temperature  
Mean Temperature 38 °F -  
Max Temperature 43 °F 45 °F 55 °F (2001)
Min Temperature 34 °F 35 °F 19 °F (2012)
Degree Days  
Heating Degree Days 26    
Moisture  
Dew Point 34 °F    
Average Humidity 78    
Maximum Humidity 87    
Minimum Humidity 54    
Precipitation  
Precipitation 0.08 in - - ()
Sea Level Pressure  
Sea Level Pressure 29.56 in    
Wind  
Wind Speed 16 mph ()    
Max Wind Speed 26 mph    
Max Gust Speed 36 mph    
Visibility 6.7 miles    
Events Rain , Snow    
Averages and records for this station are not official NWS values.
T = Trace of Precipitation, MM = Missing Value Source: Averaged Metar Reports

Daily Weather History Graph

Daily Weather History Graph

Search for Another Location

Airport:

Trip Planner

Search our weather history database for the weather conditions in past years. The results will help you decide how hot, cold, wet, or windy it might be!

Date:

Astronomy

Feb. 06, 2013 Rise Set
Actual Time 8:17 AM CET 5:48 PM CET
Civil Twilight 7:42 AM CET 6:23 PM CET
Nautical Twilight 7:03 AM CET 7:03 PM CET
Astronomical Twilight 6:24 AM CET 7:41 PM CET
Moon 5:00 AM CET (2/6) 1:36 PM CET (2/6)
Length of Visible Light 10h 41m
Length of Day
9h 30m
Waning Crescent, 19% of the Moon is Illuminated
Feb 6
Waning Crescent
Feb 10
New
Feb 17
First Quarter
Feb 25
Full
Mar 4
Last Quarter

Hourly Weather History & Observations

Time (CET) Temp. Windchill Dew Point Humidity Pressure Visibility Wind Dir Wind Speed Gust Speed Precip Events Conditions
12:20 AM 39.2 °F 32.5 °F 35.6 °F 87% 29.30 in 6.2 mi SW 10.4 mph - N/A   Mostly Cloudy
12:50 AM 41.0 °F 31.6 °F 35.6 °F 81% 29.30 in 6.2 mi West 20.7 mph - N/A   Mostly Cloudy
1:00 AM 42 °F - 36 °F 72% 29.31 in 10 mi West 20.1 mph - -   Partly Cloudy
1:20 AM 41.0 °F 31.4 °F 35.6 °F 81% 29.30 in 6.2 mi West 21.9 mph - N/A Rain Light Rain Showers
1:50 AM 39.2 °F 32.5 °F 35.6 °F 87% 29.27 in 5.0 mi West 10.4 mph - N/A Rain Light Rain Showers
2:20 AM 41.0 °F 31.4 °F 37.4 °F 87% 29.27 in 6.2 mi WNW 21.9 mph - N/A   Mostly Cloudy
2:50 AM 41.0 °F 31.9 °F 37.4 °F 87% 29.30 in 6.2 mi NW 19.6 mph - N/A   Mostly Cloudy
3:20 AM 41.0 °F 33.1 °F 37.4 °F 87% 29.30 in 6.2 mi NW 15.0 mph - N/A   Mostly Cloudy
3:50 AM 41.0 °F 32.8 °F 35.6 °F 81% 29.30 in 6.2 mi NW 16.1 mph - N/A   Mostly Cloudy
4:00 AM 41 °F - 36 °F 75% 29.31 in 9 mi NW 15.7 mph - -   Partly Cloudy
4:20 AM 41.0 °F 32.8 °F 35.6 °F 81% 29.30 in 6.2 mi NW 16.1 mph - N/A   Mostly Cloudy
4:50 AM 41.0 °F 32.5 °F 37.4 °F 87% 29.30 in 6.2 mi NW 17.3 mph - N/A   Mostly Cloudy
5:20 AM 41.0 °F 31.9 °F 37.4 °F 87% 29.30 in 5.0 mi NW 19.6 mph - N/A Rain Light Rain Showers
5:50 AM 39.2 °F 31.2 °F 35.6 °F 87% 29.33 in 6.2 mi NNW 13.8 mph - N/A   Mostly Cloudy
6:20 AM 39.2 °F 29.8 °F 33.8 °F 81% 29.33 in 6.2 mi North 18.4 mph - N/A   Scattered Clouds
6:50 AM 37.4 °F 26.1 °F 32.0 °F 81% 29.36 in 6.2 mi North 24.2 mph - N/A   Mostly Cloudy
7:00 AM 38 °F - 33 °F 74% 29.38 in 11 mi North 24.6 mph - -   Mostly Cloudy
7:20 AM 37.4 °F 25.6 °F 32.0 °F 81% 29.39 in 6.2 mi North 26.5 mph - N/A   Mostly Cloudy
7:50 AM 37.4 °F 25.9 °F 32.0 °F 81% 29.42 in 6.2 mi North 25.3 mph - N/A   Mostly Cloudy
8:20 AM 37.4 °F 26.4 °F 32.0 °F 81% 29.44 in 6.2 mi NNE 23.0 mph 34.5 mph N/A   Mostly Cloudy
8:50 AM 37.4 °F 26.4 °F 30.2 °F 75% 29.47 in 6.2 mi North 23.0 mph 35.7 mph N/A   Mostly Cloudy
9:20 AM 37.4 °F 26.4 °F 30.2 °F 75% 29.50 in 6.2 mi NNE 23.0 mph 34.5 mph N/A   Mostly Cloudy
9:50 AM 37.4 °F 26.9 °F 32.0 °F 81% 29.53 in 6.2 mi NNE 20.7 mph 33.4 mph N/A   Mostly Cloudy
10:00 AM 38 °F - 31 °F 68% 29.55 in 19 mi NNE 20.1 mph - -   Mostly Cloudy
10:20 AM 39.2 °F 29.3 °F 30.2 °F 70% 29.56 in 6.2 mi North 20.7 mph 32.2 mph N/A   Mostly Cloudy
10:50 AM 39.2 °F 29.6 °F 32.0 °F 75% 29.59 in 6.2 mi NNE 19.6 mph - N/A   Scattered Clouds
11:20 AM 41.0 °F 31.9 °F 32.0 °F 70% 29.59 in 6.2 mi North 19.6 mph - N/A   Partly Cloudy
11:50 AM 41.0 °F 32.5 °F 32.0 °F 70% 29.62 in 6.2 mi North 17.3 mph - N/A   Partly Cloudy
12:20 PM 42.8 °F 35.4 °F 32.0 °F 66% 29.62 in 6.2 mi North 15.0 mph - N/A   Scattered Clouds
12:50 PM 42.8 °F 35.4 °F 32.0 °F 66% 29.65 in 6.2 mi North 15.0 mph - N/A   Scattered Clouds
1:00 PM 42 °F - 31 °F 54% 29.65 in 19 mi North 13.4 mph - -   Mostly Cloudy
1:20 PM 42.8 °F 36.6 °F 32.0 °F 66% 29.65 in 6.2 mi North 11.5 mph - N/A   Scattered Clouds
1:50 PM 42.8 °F 35.1 °F 32.0 °F 66% 29.65 in 6.2 mi NNW 16.1 mph - N/A   Scattered Clouds
2:20 PM 41.0 °F 32.5 °F 33.8 °F 76% 29.65 in 6.2 mi NW 17.3 mph - N/A Rain Light Rain Showers
2:50 PM 41.0 °F 34.7 °F 35.6 °F 81% 29.65 in 6.2 mi NW 10.4 mph - N/A   Mostly Cloudy
3:20 PM 41.0 °F 34.3 °F 35.6 °F 81% 29.65 in 6.2 mi NW 11.5 mph - N/A Rain Light Rain Showers
3:50 PM 41.0 °F 34.3 °F 35.6 °F 81% 29.65 in 5.0 mi NNW 11.5 mph - N/A Rain Light Rain Showers
4:00 PM 40 °F - 36 °F 81% 29.67 in 5 mi NNW 11.2 mph - - Snow Light Snow Showers
4:20 PM 41.0 °F 32.8 °F 35.6 °F 81% 29.65 in 4.3 mi NW 16.1 mph - N/A Rain Light Rain Showers
4:50 PM 41.0 °F 32.8 °F 37.4 °F 87% 29.65 in 5.6 mi NW 16.1 mph - N/A Rain Light Rain Showers
5:20 PM 37.4 °F 29.3 °F 33.8 °F 87% 29.65 in 6.2 mi NE 12.7 mph - N/A Rain , Snow Light Rain Showers
5:50 PM 39.2 °F 32.5 °F 33.8 °F 81% 29.71 in 6.2 mi NNE 10.4 mph - N/A   Mostly Cloudy
6:20 PM 39.2 °F 32.5 °F 33.8 °F 81% 29.74 in 6.2 mi NNE 10.4 mph - N/A   Scattered Clouds
6:50 PM 39.2 °F 32.0 °F 33.8 °F 81% 29.74 in 5.6 mi NNE 11.5 mph - N/A Rain Light Rain Showers
7:00 PM 39 °F - 34 °F 76% 29.76 in 6 mi NNE 11.2 mph - - Snow Light Snow Showers
7:20 PM 39.2 °F 29.0 °F 33.8 °F 81% 29.77 in 6.2 mi North 21.9 mph - N/A Rain Light Rain Showers
7:50 PM 39.2 °F 30.8 °F 32.0 °F 75% 29.77 in 6.2 mi North 15.0 mph 27.6 mph N/A   Mostly Cloudy
8:20 PM 41.0 °F 31.6 °F 32.0 °F 70% 29.80 in 6.2 mi North 20.7 mph 32.2 mph N/A Rain Light Rain Showers
8:50 PM 39.2 °F 29.3 °F 33.8 °F 81% 29.80 in 6.2 mi North 20.7 mph - N/A   Mostly Cloudy
9:20 PM 37.4 °F 26.9 °F 32.0 °F 81% 29.83 in 6.2 mi North 20.7 mph 32.2 mph N/A Rain , Snow Light Rain Showers
9:50 PM 39.2 °F 29.6 °F 33.8 °F 81% 29.83 in 5.0 mi North 19.6 mph 33.4 mph N/A Rain Light Rain Showers
10:00 PM 39 °F - 34 °F 76% 29.84 in 5 mi North 20.1 mph - - Rain Light Rain Showers
10:20 PM 39.2 °F 29.0 °F 33.8 °F 81% 29.83 in 6.2 mi NNW 21.9 mph 33.4 mph N/A   Mostly Cloudy
10:50 PM 41.0 °F 32.8 °F 33.8 °F 76% 29.83 in 6.2 mi North 16.1 mph - N/A Rain Light Rain Showers
11:20 PM 41.0 °F 31.6 °F 33.8 °F 76% 29.86 in 6.2 mi NNW 20.7 mph - N/A   Mostly Cloudy
11:50 PM 39.2 °F 29.6 °F 33.8 °F 81% 29.86 in 6.2 mi North 19.6 mph - N/A   Mostly Cloudy